Showing default

ESSA 6 (TOS-D), 3035

Orbit data source: Space-Track

ESSA 6 (TOS-D), 3035 is a payload satellite owned by ESSA (US) in SSO that was launched on Fri, 10 Nov 1967 UTC via a THOR DELTA E1 launch vehicle from the Air Force Western Test Range (AFWTR). Payload-class satellites include a variety of spacecraft equipped with specific instruments for various scientific and technological missions. These include communications satellites like Starlink; space stations such as the ISS; scientific satellites like the Hubble; Earth observation satellites from companies like Planet Labs, Umbra, and HawkEye 360; GPS; miniature CubeSats for education and research; and military/defense satellites.

Loading next visibility...
Identifier
3035, 1967-114A
Orbit
SSO
Country
Flag of USUS
Related business
Manufacturer
RCA/East Windsor
Mission
Non-operational spacecraft
Bus & Motor
TIROS I, Unknown motor
Mass
135 kg wet, 135 kg dry
Launch date (UTC)
1967-11-10 (59 years ago)
Launch vehicle
THOR DELTA E1
Launch site
Air Force Western Test Range (AFWTR)
Object type
Payload
Rocket body
Debris
Shape & HBR
Unknown
Radar Cross Section
Medium (>0.1 m² and <1 m²)

Expand to show TLE details & history
Last TLE update: 12 hours ago

TLE from 12 hours ago
0 ESSA 6 (TOS-D)
1 03035U 67114A   26175.22403369 -.00000052  00000-0 -35659-4 0  9991
2 03035 102.0169 280.2389 0049158 110.1886 318.1670 12.54249827683496
Epoch: 2026-06-24T05:22Z
TLE epoch observation values (Epoch: 2026-06-24T05:22:36.510Z)
Latitude
65.14193°
Longitude
-100.00354°
Altitude
1,429.251 km
Speed
7.166 km/s
True Right ascension
16h 52m 07s
True Declination
65° 01' 19"
Sunlit
Object was in daylight at epoch
Visualization orbit readout
Latitude
Unknown
Longitude
Unknown
Altitude
Unknown
Speed
Unknown
Apparent Right ascension
Unknown
Apparent Declination
Unknown
Sunlit
N/A
Visualization observer readout
Local Sidereal Time
04:41:39
Azimuth
Unknown
Elevation
Unknown
Doppler factor
Unknown
Orbital elements
Apogee altitude
1,482.78 km
Perigee altitude
1,405.873 km
Semi-major axis
7,822.463 km
Eccentricity
0.00492
Inclination
102.0169°
RAAN
280.2389°
Arg. of periapsis
110.1886°
True anomaly
317.78957°
Mean anomaly
318.167°
Eccentric anomaly
317.97846°
Mean motion
3.1371 °/min
Orbital period
114.76 mins
BSTAR
-0.000035659
Loading maneuver chart data...
Computing Atmospheric mass density...
Loading historical data...
Loading historical data...
Loading historical data...
Loading historical data...
Loading historical data...
Loading historical data...
Loading historical data...
Other satellites on launch #114 in the year 1967 (1967-11-10 UTC)

Documentation

Showing up to 5 results
|